DW2762 Weather Reports


Display with metric or nautical units.
time (UTC)temp
F
wind
direction
speed
MPH
gust
MPH
rain 1hr
in
rain 24hr
in
rain mn
in
humidity
%
barometer
mb
20181120150310 32 69 6.0 9.0 0.02 0.12 0.12 94 1013.7
20181120143310 32 38 6.0 9.0 0.03 0.11 0.11 94 1013.9
20181120140310 32 63 4.0 10.0 0.05 0.09 0.09 94 1014.1
20181120133310 32 37 4.0 8.0 0.06 0.08 0.08 93 1014.5
20181120130310 32 49 5.0 10.0 0.04 0.05 0.05 93 1014.4
20181120123310 32 42 0.0 9.0 0.02 0.02 0.02 92 1014.4
20181120120310 32 74 8.0 15.0 0.00 0.01 0.01 90 1014.5
20181120113310 33 44 8.0 14.0 0.00 0.01 0.01 85 1014.7
20181120110310 34 49 10.0 15.0 0.00 0.01 0.01 80 1014.8
20181120103310 34 63 3.0 13.0 0.00 0.01 0.01 80 1015.1
20181120100310 34 46 1.0 14.0 0.00 0.01 0.01 80 1015.5
20181120093310 34 46 9.0 12.0 0.00 0.01 0.01 81 1015.7
20181120090310 33 34 8.0 13.0 0.00 0.01 0.01 82 1015.9
20181120083310 33 46 0.0 13.0 0.00 0.01 0.01 82 1016.2
20181120080310 33 55 8.0 13.0 0.01 0.01 0.01 83 1016.2
20181120073311 33 42 1.0 10.0 0.01 0.01 0.01 83 1016.5
20181120070310 33 17 6.0 12.0 0.00 0.00 0.00 83 1016.3
20181120063310 33 74 5.0 10.0 0.00 0.00 0.00 83 1017.1
20181120060310 33 64 7.0 13.0 0.00 0.00 0.00 84 1017.3
20181120053310 33 84 4.0 11.0 0.00 0.02 0.00 84 1017.3
20181120050310 33 99 5.0 12.0 0.00 0.02 0.00 84 1017.5
20181120043310 33 60 8.0 10.0 0.00 0.03 0.00 84 1017.8
20181120040310 33 138 4.0 13.0 0.00 0.03 0.00 84 1017.8
20181120033310 33 94 4.0 10.0 0.00 0.03 0.00 84 1017.8
20181120030313 32 82 3.0 9.0 0.00 0.03 0.00 84 1017.7
20181120023310 32 80 0.0 7.0 0.00 0.03 0.00 83 1017.9
20181120020310 33 81 0.0 5.0 0.00 0.03 0.00 83 1018.2
20181120013310 32 70 3.0 13.0 0.00 0.03 0.00 82 1018.4
20181120010310 32 92 9.0 13.0 0.00 0.03 0.00 83 1018.3
20181120003310 32 53 6.0 11.0 0.00 0.03 0.00 83 1018.7
20181120000310 32 57 7.0 12.0 0.00 0.03 0.00 84 1018.9
20181119233310 32 69 10.0 14.0 0.00 0.03 0.00 84 1019.3
20181119230310 32 39 8.0 13.0 0.00 0.03 0.00 84 1019.5
20181119223310 32 59 9.0 14.0 0.00 0.03 0.03 83 1019.6
20181119220310 31 60 8.0 11.0 0.00 0.03 0.03 84 1019.8
20181119213310 31 44 10.0 15.0 0.00 0.03 0.03 83 1019.7
20181119210310 32 56 6.0 11.0 0.00 0.03 0.03 82 1019.6
20181119203311 32 46 6.0 12.0 0.00 0.03 0.03 82 1019.8
20181119200310 32 46 7.0 12.0 0.00 0.03 0.03 81 1019.6
20181119193310 32 38 6.0 11.0 0.00 0.03 0.03 81 1019.4
20181119190310 32 45 5.0 11.0 0.00 0.03 0.03 81 1019.4
20181119183310 32 66 9.0 13.0 0.00 0.03 0.03 80 1019.3
20181119180310 32 55 8.0 16.0 0.00 0.03 0.03 80 1019.2
20181119173310 32 55 4.0 12.0 0.00 0.03 0.03 80 1019.0
20181119170310 32 52 0.0 11.0 0.00 0.03 0.03 79 1018.9
20181119163311 32 58 8.0 11.0 0.00 0.06 0.03 78 1018.5
20181119160311 33 68 2.0 14.0 0.00 0.06 0.03 77 1018.4
20181119153311 33 31 1.0 7.0 0.00 0.06 0.03 77 1018.4